20050103,232341,0,32.707140,-117.236748,NaN,NaN,NaN,NaN
20050103,232411,29,32.707141,-117.236750,NaN,NaN,NaN,NaN
20050103,232445,63,32.707143,-117.236748,NaN,NaN,NaN,NaN
20050103,232511,89,32.707143,-117.236750,NaN,NaN,NaN,NaN
20050103,232546,124,32.707140,-117.236752,NaN,NaN,NaN,NaN
20050103,232611,150,32.707143,-117.236755,NaN,NaN,NaN,NaN
20050103,232646,185,32.707136,-117.236755,NaN,NaN,NaN,NaN
20050103,232712,211,32.707135,-117.236752,NaN,NaN,NaN,NaN
20050103,232746,244,32.707136,-117.236753,NaN,NaN,NaN,NaN
20050103,232812,270,32.707135,-117.236753,NaN,NaN,NaN,NaN
20050103,232847,305,32.707130,-117.236753,NaN,NaN,NaN,NaN
20050103,232912,330,32.707136,-117.236752,NaN,NaN,NaN,NaN
20050103,232946,365,32.707136,-117.236750,NaN,NaN,NaN,NaN
20050103,233012,391,32.707136,-117.236750,NaN,NaN,NaN,NaN
20050103,233046,424,32.707136,-117.236748,NaN,NaN,NaN,NaN
20050103,233112,450,32.707136,-117.236745,NaN,NaN,NaN,NaN
20050103,233146,484,32.707138,-117.236743,NaN,NaN,NaN,NaN
20050103,233212,511,32.707138,-117.236743,NaN,NaN,NaN,NaN
20050103,233247,545,32.707138,-117.236750,NaN,NaN,NaN,NaN
20050103,233312,571,32.707136,-117.236753,NaN,NaN,NaN,NaN
20050103,233347,606,32.707133,-117.236750,NaN,NaN,NaN,NaN
20050103,233412,630,32.707135,-117.236750,NaN,NaN,NaN,NaN
20050103,233447,665,32.707135,-117.236758,NaN,NaN,NaN,NaN
20050103,233512,691,32.707133,-117.236755,NaN,NaN,NaN,NaN
20050103,233547,725,32.707138,-117.236747,NaN,NaN,NaN,NaN
20050103,233612,751,32.707145,-117.236753,NaN,NaN,NaN,NaN
20050103,233647,786,32.707133,-117.236757,NaN,NaN,NaN,NaN
20050103,233712,810,32.707138,-117.236760,NaN,NaN,NaN,NaN
20050103,233747,845,32.707141,-117.236758,NaN,NaN,NaN,NaN
20050103,233813,871,32.707150,-117.236757,NaN,NaN,NaN,NaN
20050103,233847,906,32.707146,-117.236755,NaN,NaN,NaN,NaN
20050103,233912,930,32.707146,-117.236752,NaN,NaN,NaN,NaN
20050103,233947,966,32.707143,-117.236752,NaN,NaN,NaN,NaN
20050103,234013,992,32.707141,-117.236750,NaN,NaN,NaN,NaN
20050103,234047,1025,32.707143,-117.236753,NaN,NaN,NaN,NaN
20050103,234113,1051,32.707140,-117.236750,NaN,NaN,NaN,NaN
20050103,234147,1086,32.707146,-117.236753,NaN,NaN,NaN,NaN
20050103,234213,1112,32.707146,-117.236752,NaN,NaN,NaN,NaN
20050103,234248,1146,32.707146,-117.236748,NaN,NaN,NaN,NaN
20050103,234313,1171,32.707145,-117.236752,NaN,NaN,NaN,NaN
20050103,234347,1205,32.707145,-117.236747,NaN,NaN,NaN,NaN
20050103,234413,1231,32.707141,-117.236745,NaN,NaN,NaN,NaN
20050103,234447,1266,32.707141,-117.236747,NaN,NaN,NaN,NaN
20050103,234513,1292,32.707136,-117.236743,NaN,NaN,NaN,NaN
20050103,234548,1327,32.707135,-117.236747,NaN,NaN,NaN,NaN
20050103,234613,1351,32.707140,-117.236748,NaN,NaN,NaN,NaN
20050103,234648,1387,32.707135,-117.236745,NaN,NaN,NaN,NaN
20050103,234713,1411,32.707131,-117.236745,NaN,NaN,NaN,NaN
20050103,234748,1446,32.707130,-117.236745,NaN,NaN,NaN,NaN
20050103,234813,1472,32.707133,-117.236745,NaN,NaN,NaN,NaN
20050103,234848,1507,32.707131,-117.236747,NaN,NaN,NaN,NaN
20050103,234913,1531,32.707135,-117.236747,NaN,NaN,NaN,NaN
20050103,234947,1565,32.707136,-117.236743,NaN,NaN,NaN,NaN
20050103,235013,1591,32.707135,-117.236745,NaN,NaN,NaN,NaN
20050103,235047,1626,32.707135,-117.236742,NaN,NaN,NaN,NaN
20050103,235113,1652,32.707140,-117.236745,NaN,NaN,NaN,NaN
20050103,235148,1687,32.707135,-117.236747,NaN,NaN,NaN,NaN
20050103,235213,1711,32.707136,-117.236747,NaN,NaN,NaN,NaN
20050103,235248,1746,32.707138,-117.236743,NaN,NaN,NaN,NaN
20050103,235313,1772,32.707138,-117.236742,NaN,NaN,NaN,NaN
20050103,235348,1806,32.707138,-117.236742,NaN,NaN,NaN,NaN
20050103,235414,1832,32.707136,-117.236743,NaN,NaN,NaN,NaN
20050103,235448,1867,32.707145,-117.236747,NaN,NaN,NaN,NaN
20050103,235514,1893,32.707153,-117.236747,NaN,NaN,NaN,NaN
20050103,235548,1926,32.707148,-117.236747,NaN,NaN,NaN,NaN
20050103,235614,1952,32.707145,-117.236743,NaN,NaN,NaN,NaN
20050103,235648,1986,32.707151,-117.236743,NaN,NaN,NaN,NaN
20050103,235714,2012,32.707153,-117.236745,NaN,NaN,NaN,NaN
20050103,235748,2047,32.707151,-117.236742,NaN,NaN,NaN,NaN
20050103,235814,2073,32.707146,-117.236740,NaN,NaN,NaN,NaN
20050103,235848,2106,32.707141,-117.236750,NaN,NaN,NaN,NaN
20050103,235914,2132,32.707143,-117.236750,NaN,NaN,NaN,NaN
20050103,235948,2167,32.707140,-117.236750,NaN,NaN,NaN,NaN
